Regional Weather Roundup
Issued by NWS

Home | Current Version | Previous Version | Text Only | Print | Product List | Glossary Off
Versions: 1 2 3 4 5 6 7 8 9 10 11 12 13 14 15 16 17 18 19 20 21 22 23 24 25 26 27 28 29 30 31 32 33 34 35 36 37 38 39 40 41 42 43 44 45 46 47 48 49 50

000
ASUS43 KMPX 231210
RWRMN
WEATHER ROUNDUP FOR MINNESOTA
NATIONAL WEATHER SERVICE TWIN CITIES/CHANHASSEN MN
700 AM CDT FRI JUN 23 2017


NOTE: "FAIR" INDICATES FEW OR NO CLOUDS BELOW 12,000 FEET WITH NO
SIGNIFICANT WEATHER AND/OR OBSTRUCTIONS TO VISIBILITY. N/A MEANS
CURRENT SKY AND/OR WEATHER CONDITIONS ARE NOT AVAILABLE.

MNZ060>063-068>070-231300-
   Twin Cities Metro

CITY           SKY/WX    TMP DP  RH WIND       PRES   REMARKS
TWIN CITIES    SUNNY     62  51  67 NW7       29.75R
6HR MIN TEMP:  58; 6HR MAX TEMP:  63;

ST PAUL        SUNNY     61  55  81 NW7       29.75R
CRYSTAL        SUNNY     61  48  62 NW10      29.73R
BLAINE         SUNNY     61  52  72 W12       29.74R
LAKEVILLE      SUNNY     57  54  88 W6        29.76R
EDEN PRAIRIE   SUNNY     62  49  62 NW10      29.75R
6HR MIN TEMP:  56; 6HR MAX TEMP:  62;

SOUTH ST PAUL  SUNNY     61  54  77 W5        29.75R
LAKE ELMO      FAIR      59  54  82 NW7       29.75R
$$
MNZ001>005-007-008-013>017-022>024-027-028-231300-
   Northwest Minnesota

CITY           SKY/WX    TMP DP  RH WIND       PRES   REMARKS
BEMIDJI        PTSUNNY   56  50  80 W17       29.72R
HALLOCK        CLOUDY    57  54  88 NW18G26   29.74R
ROSEAU           N/A     57  52  82 W9        29.69R
WARROAD        PTSUNNY   54  50  87 W10       29.69R
THIEF RVR FALL CLOUDY    56  52  86 NW14      29.76R
CROOKSTON      CLOUDY    57  54  88 NW13      29.77R
FOSSTON        PTSUNNY   54  50  87 NW13G18   29.75R
DETROIT LAKES  CLOUDY    57  52  82 NW14G24   29.78R
MOORHEAD       SUNNY     61  54  77 NW14      29.80R
PARK RAPIDS    PTSUNNY   58  49  72 NW15      29.73R
MAHNOMEN       FAIR      56  51  85 NW12      29.76R
$$
MNZ006-009>011-018-025>026-231300-
   North Central Minnesota

CITY           SKY/WX    TMP DP  RH WIND       PRES   REMARKS
BAUDETTE       CLOUDY    54  51  90 W9        29.66R
FLAG ISLAND    CLOUDY    55  52  88 NW20      29.65R
INTL FALLS     PTSUNNY   54  49  83 W9        29.62R
6HR MIN TEMP:  52; 6HR MAX TEMP:  57;

WASKISH        MOSUNNY   57  52  82 W14G20    29.68R
BIG FORK       CLOUDY    55  48  76 W5        29.66S
LONGVILLE      PTSUNNY   55  48  76 W7        29.70S
GRAND RAPIDS   PTSUNNY   56  49  77 NW12      29.69S
CRANE LAKE     CLOUDY    54  48  82 W6        29.63S
ORR            CLOUDY    54  46  76 W13G20    29.62R
COOK           PTSUNNY   52  46  82 W8        29.64S
WALKER         CLOUDY    56  49  80 W8        29.71R
$$
MNZ012-019>021-037-231300-
   Northeast Minnesota

CITY           SKY/WX    TMP DP  RH WIND       PRES   REMARKS
DULUTH         SUNNY     54  48  80 W10       29.66R
6HR MIN TEMP:  50; 6HR MAX TEMP:  57;

ELY            MOSUNNY   54  46  76 W10       29.62R
HIBBING        PTSUNNY   53  48  83 W6        29.65S
EVELETH        MOSUNNY   55  44  67 W7        29.65S
DULUTH HARBOR  MOSUNNY   61  50  67 W17       29.66R
TWO HARBORS    MOSUNNY   59  48  67 W7        29.63R
SILVER BAY     SUNNY     55  48  76 W3        29.60S
GRAND MARAIS     N/A     51  44  77 W6        29.57R
G MARAIS ARPRT SUNNY     54  43  66 W3        29.59S
$$
MNZ029>031-032-039>041-046>048-054>057-064-231300-
   West Central Minnesota

CITY           SKY/WX    TMP DP  RH WIND       PRES   REMARKS
FERGUS FALLS   CLOUDY    57  52  82 W15       29.77R
WHEATON        CLOUDY    59  52  77 W12G18    29.84R
MORRIS         CLOUDY    59  52  77 W20       29.80R
ALEXANDRIA     CLOUDY    58  49  72 W15G23    29.79R
ELBOW LAKE     CLOUDY    57  50  79 NW15G21   29.80R
WADENA         CLOUDY    57  48  72 W7G16     29.75R
GLENWOOD       PTSUNNY   55  48  76 W14       29.80R
APPLETON       PTSUNNY   57  52  82 W10G16    29.82R
BENSON         PTSUNNY   59  50  72 NW16      29.82S
ORTONVILLE     PTSUNNY   59  52  77 W15G24    29.84R
MADISON        SUNNY     61  52  72 NW16G24   29.84R
WILLMAR        FAIR      57  52  82 W10       29.82R
$$
MNZ033>034-036-042>043-049>051-058-059-231300-
   Central Minnesota

CITY           SKY/WX    TMP DP  RH WIND       PRES   REMARKS
ST CLOUD       SUNNY     58  48  69 NW10      29.74R
6HR MIN TEMP:  54; 6HR MAX TEMP:  58;

SAUK CENTRE    FAIR      57  48  73 W9        29.78R
PAYNESVILLE    SUNNY     55  53  90 W8        29.79R
AITKIN         SUNNY     55  46  71 W7        29.69S
PINE RIVER     SUNNY     55  48  76 NW3       29.75S
BRAINERD       SUNNY     57  47  69 W12       29.73R
STAPLES        PTSUNNY   57  48  72 W12       29.74R
LONG PRAIRIE   FAIR      55  48  76 SW7       29.77R
LITTLE FALLS   SUNNY     55  45  67 W10       29.74S
LITCHFIELD     SUNNY     61  50  67 NW10G17   29.79R
BUFFALO        SUNNY     60  48  63 W8        29.78R
MAPLE LAKE     SUNNY     60  50  69 W9        29.77R
HUTCHINSON     SUNNY     58  51  76 W9        29.79S
$$
MNZ037-044-045-052-053-231300-
   East Central Minnesota

CITY           SKY/WX    TMP DP  RH WIND       PRES   REMARKS
PRINCETON      SUNNY     61  48  63 W8        29.74R
MORA           SUNNY     55  45  67 NW8       29.73S
CAMBRIDGE      SUNNY     61  46  59 W8        29.71S
RUSH CITY      SUNNY     57  48  72 NW5       29.71S
MOOSE LAKE     SUNNY     55  46  71 W5        29.68S
HINCKLEY       FAIR      57  50  77 W6        29.71S
CLOQUET        SUNNY     55  45  67 W8        29.68R
MCGREGOR       SUNNY     55  46  71 W7        29.70S
$$
MNZ071>073-080-081-089-090-097-098-231300-
   Southwest Minnesota

CITY           SKY/WX    TMP DP  RH WIND       PRES   REMARKS
MONTEVIDEO     MOSUNNY   61  52  72 NW9G16    29.83R
GRANITE FALLS  SUNNY     59  51  75 W12       29.85S
CANBY          SUNNY     59  50  71 NW15G24   29.87R
MARSHALL       MOSUNNY   58  50  75 NW15      29.86R
REDWOOD FALLS  SUNNY     58  48  69 W15       29.82R
OLIVIA         SUNNY     55  48  76 W13       29.81S
PIPESTONE      SUNNY     55  46  71 NW9       29.90R
WINDOM         SUNNY     59  48  67 NW14      29.85R
WORTHINGTON    SUNNY     57  48  72 NW12      29.89R
JACKSON        SUNNY     57  50  77 NW12      29.86R
TRACY          SUNNY     59  51  75 NW16      29.85R
SLAYTON        SUNNY     56  48  74 NW15      29.88R
$$
MNZ065>067-074>077-082>085-091>093-231300-
   South Central Minnesota

CITY           SKY/WX    TMP DP  RH WIND       PRES   REMARKS
MANKATO        SUNNY     59  50  72 NW12      29.80R
NEW ULM        SUNNY     57  48  72 NW12G18   29.81R
ST JAMES       MOSUNNY   59  52  77 W10       29.84R
FAIRMONT       MOSUNNY   60  51  72 NW12      29.84R
GLENCOE        SUNNY     60  54  79 W10       29.77R
FARIBAULT      SUNNY     61  54  77 W9        29.78R
OWATONNA       SUNNY     59  55  88 W6        29.79R
WASECA         SUNNY     55  54  94 W7        29.80R
ALBERT LEA     MOSUNNY   61  54  77 W8        29.80R
$$
MNZ078>079-086>088-094>096-231300-
   Southeast Minnesota

CITY           SKY/WX    TMP DP  RH WIND       PRES   REMARKS
ROCHESTER      SUNNY     61  56  83 W8        29.78R
6HR MIN TEMP:  56; 6HR MAX TEMP:  64;

RED WING       SUNNY     59  57  94 CALM      29.73R
STANTON        SUNNY     60  54  80 W8        29.75R
DODGE CENTER   SUNNY     59  54  82 W9        29.78R
WINONA         SUNNY     61  59  94 CALM      29.74R FOG
AUSTIN         SUNNY     61  55  82 W5        29.79R
PRESTON        SUNNY     60  53  78 SW6       29.78R
$$
ABBREVIATIONS USED IN REMARKS
   TC - TEMPERATURES IN CELSIUS
  WCI - WIND CHILL INDEX
   HX - HEAT INDEX
  VSB - VISIBILITY
$$



USA.gov is the U.S. government's official web portal to all federal, state and local government web resources and services.